Voltar ao catálogo

STARLINK-31568

AtivoComunicaçõesVLEO
NORAD 59412·PAYLOAD·🇺🇸 United States

Lançado Apr 5, 2024 de Cape Canaveral Space Force Station

Loading…

Próximas Passagens (próximas 24 horas)

TLE

AtualizadoSource: CelesTrak SupGP

Época: Sep 14, 2026, 22:41 UTC

1 59412C 24064Q   26257.94562500  .00059533  00000+0  21563-2 0  2570
2 59412  43.0027  67.5091 0001422 272.6728 252.7501 15.27547995    17

Acompanhe STARLINK-31568 em tempo real com AllMySat

Download on the App Store